Vorticity
nan nan nan nan nan nan nan nan nan nan nan nan nan nan nan nan nan nan nan nan nan nan nan nan nan nan nan nan nan nan nan nan nan nan nan nan nan nan nan nan nan nan nan nan nan nan nan
nan 7 6 6 5 6 7 7 6 6 6 6 6 6 6 7 7 7 7 7 7 8 7 6 7 14 12 6 8 6 6 8 9 6 6 7 8 11 11 9 8 3 6 7 6 9 nan
nan 5 5 6 7 7 7 6 7 6 6 7 7 7 7 7 7 7 7 8 9 8 7 6 10 13 9 8 4 6 9 9 10 5 7 5 6 7 10 9 8 8 8 11 13 11 nan
nan 6 6 6 6 6 6 7 6 6 7 7 7 7 7 7 7 7 9 9 9 9 11 11 12 11 6 8 7 7 6 7 6 11 10 6 9 8 7 6 8 11 8 8 7 13 nan
nan 5 6 5 5 6 5 6 6 6 7 7 6 6 7 7 7 8 10 10 15 18 16 13 10 7 7 8 9 8 5 6 7 10 10 10 10 8 5 10 7 9 7 4 5 8 nan
nan 5 6 4 4 6 6 6 6 7 7 6 7 7 7 8 8 8 14 23 23 16 15 9 6 7 10 9 9 7 9 8 7 7 12 12 8 7 6 6 4 4 7 6 7 1 nan
nan 5 6 6 5 4 6 6 7 7 6 7 8 8 8 7 7 12 20 20 16 12 10 7 4 4 8 12 9 7 7 9 11 8 8 8 8 6 5 6 9 7 6 3 6 5 nan
nan 5 5 6 6 6 6 6 6 7 7 8 8 7 7 7 7 20 17 10 10 6 6 12 9 8 11 9 7 10 7 7 8 7 6 12 8 8 6 5 10 6 7 11 11 10 nan
nan 6 6 6 7 8 5 7 6 6 7 7 7 7 7 8 21 20 11 6 5 12 14 10 14 10 10 7 9 11 7 9 8 7 11 7 4 9 12 11 9 7 12 11 6 13 nan
nan 6 7 7 8 8 7 5 5 7 7 6 6 6 8 16 21 10 7 5 10 11 12 12 9 9 9 5 7 9 9 9 9 8 12 9 8 8 12 12 9 10 12 8 6 9 nan
nan 19 16 10 7 7 7 6 5 7 7 7 6 6 10 20 13 6 5 8 13 10 7 13 10 7 8 7 7 9 8 9 7 6 9 7 8 9 12 12 10 11 6 5 6 7 nan
nan 12 13 19 17 8 7 7 6 7 8 6 6 7 12 16 11 5 7 12 12 11 9 11 8 8 8 9 7 9 8 7 8 12 12 8 6 12 10 6 10 12 6 12 15 13 nan
nan 9 4 8 19 19 13 7 7 6 7 7 7 9 11 11 7 8 12 11 12 7 8 10 9 9 8 9 11 8 7 6 4 8 11 17 11 11 9 6 6 9 10 14 14 11 nan
nan 9 8 7 7 12 18 19 8 6 6 7 7 19 18 8 6 10 12 11 8 6 7 10 10 10 10 9 11 8 4 10 12 6 7 8 12 18 8 12 7 3 8 9 7 8 nan
nan 10 9 7 7 10 7 18 20 9 5 7 16 20 12 12 11 7 10 10 9 6 5 6 13 13 9 10 10 11 10 10 13 10 5 5 11 11 10 10 7 8 10 9 7 7 nan
nan 7 8 9 10 9 9 9 19 17 7 10 15 11 11 12 10 9 9 7 7 8 10 9 11 8 8 8 11 8 9 12 11 8 8 5 12 8 11 8 8 6 5 10 10 9 nan
nan 6 6 7 9 9 9 8 9 20 16 10 11 10 10 10 8 10 11 8 7 8 12 8 7 9 9 9 9 8 9 10 11 10 7 10 9 6 9 11 10 7 9 8 9 9 nan
nan 11 9 8 7 7 6 8 9 19 19 9 8 9 9 11 9 9 9 8 7 9 8 9 10 11 10 8 10 11 10 9 12 11 7 9 5 12 8 8 12 11 10 7 6 10 nan
nan 10 10 9 9 8 7 8 10 20 14 6 11 7 9 11 10 8 7 10 11 12 8 8 10 9 8 8 11 9 11 12 8 6 9 11 7 6 11 11 12 7 9 8 7 10 nan
nan 6 6 8 8 9 10 7 7 13 17 10 9 11 10 9 9 7 11 12 11 9 10 10 9 9 9 12 9 6 11 12 10 8 8 8 12 11 4 -2 -1 4 7 10 7 3 nan
nan 7 6 7 7 9 11 10 6 7 16 16 10 11 10 8 10 11 6 8 9 10 12 6 11 12 7 5 11 10 8 8 11 10 7 7 8 11 7 9 8 11 9 14 12 6 nan
nan 7 8 7 6 7 10 14 10 6 12 14 10 7 9 13 14 13 7 8 8 9 7 6 9 10 9 8 4 3 12 13 8 10 8 6 8 9 13 20 14 16 17 15 13 11 nan
nan 6 7 8 9 9 9 11 12 7 9 10 10 12 10 7 8 9 7 5 3 6 10 11 8 9 9 12 10 13 8 7 12 9 8 8 7 9 10 8 14 15 15 13 12 12 nan
nan 7 7 6 9 10 8 11 14 11 5 8 8 9 11 11 9 5 0 1 6 8 4 10 13 11 10 12 12 15 14 13 12 10 10 6 10 8 7 9 15 12 10 10 10 11 nan
nan 8 9 7 9 10 9 15 17 12 8 8 9 10 9 8 8 10 11 11 10 8 6 9 15 11 8 7 10 11 13 13 16 17 12 9 8 10 12 10 8 13 11 11 10 10 nan
nan 8 9 10 10 10 14 15 10 8 9 10 11 9 7 11 13 5 6 16 18 14 13 14 15 12 12 11 10 11 9 9 9 8 13 14 8 7 8 11 11 11 11 10 8 9 nan
nan 11 12 14 16 17 11 4 5 6 8 9 12 9 7 11 11 9 11 10 9 9 13 18 14 9 11 12 11 10 9 10 14 11 7 7 12 9 8 7 10 13 10 8 10 11 nan
nan 15 17 18 16 11 7 7 6 7 9 8 10 10 8 9 12 12 10 2 3 4 6 10 11 9 11 13 10 11 12 10 12 13 12 8 7 9 10 8 12 12 11 11 10 11 nan
nan nan nan nan nan nan nan nan nan nan nan nan nan nan nan nan nan nan nan nan nan nan nan nan nan nan nan nan nan nan nan nan nan nan nan nan nan nan nan nan nan nan nan nan nan nan nan
CAPE
4 7 7 10 12 15 14 12 7 10 12 4 3 8 7 6 5 6 5 4 3 3 3 1 1 0 0 0 0 0 0 0 0 0 0 0 4 15 16 0 1 2 5 9 1 0 0
15 15 6 16 11 12 8 19 14 12 9 5 7 6 7 7 7 8 6 4 4 3 2 1 1 0 0 0 0 0 0 0 0 0 0 0 15 14 22 13 1 0 0 0 7 0 0
0 0 14 13 11 8 13 7 14 8 7 4 5 3 6 8 6 8 7 8 5 3 2 2 1 0 0 0 0 0 0 0 0 0 0 0 0 0 9 12 6 4 1 0 1 0 0
1 6 5 6 5 11 9 6 8 12 5 6 7 5 10 8 8 6 6 7 5 3 3 2 0 0 0 0 0 0 0 0 0 0 0 0 0 0 9 8 1 0 0 0 0 0 0
0 0 6 7 5 9 5 3 9 5 8 9 12 9 7 8 8 9 6 4 2 1 1 0 0 0 0 0 0 0 0 0 0 0 0 0 0 0 5 14 3 0 0 0 0 0 0
0 0 0 4 4 4 7 5 11 5 11 8 5 4 2 4 4 8 4 0 0 0 0 0 0 0 0 0 0 0 0 0 0 0 0 0 0 0 4 16 1 1 1 1 2 0 0
0 0 0 0 0 4 8 6 7 6 8 10 14 10 12 11 3 1 0 0 0 0 0 0 0 0 0 0 0 0 0 0 0 0 0 0 0 0 0 0 12 14 10 5 0 0 0
0 0 0 0 0 0 1 6 7 6 5 3 17 11 11 3 0 0 0 0 0 0 0 0 0 0 0 0 0 0 0 0 0 0 0 0 0 0 0 3 1 0 6 1 0 0 0
8 0 0 0 0 0 0 0 3 6 5 3 9 11 8 0 0 0 0 0 0 0 0 0 0 0 0 0 0 0 0 0 0 0 0 0 0 0 0 0 0 0 0 0 0 0 0
32 20 6 2 0 0 0 0 0 0 7 4 6 9 8 0 0 0 0 0 0 0 0 0 0 0 0 0 0 0 0 0 0 0 0 0 0 0 0 0 0 0 0 4 2 0 0
34 58 58 37 0 0 0 0 0 0 2 11 7 5 7 0 0 0 0 0 0 0 0 0 0 0 0 0 0 0 0 0 0 0 0 0 0 0 0 0 0 0 0 1 0 1 3
5 12 14 42 52 13 0 0 0 0 0 1 2 9 3 0 0 0 0 0 0 0 0 0 0 0 0 0 0 0 0 0 0 0 0 0 0 0 0 0 0 0 1 1 4 18 4
0 2 17 8 41 52 40 13 0 1 0 0 0 5 3 0 0 0 0 0 0 0 0 0 0 0 0 0 0 0 0 0 0 0 0 0 0 0 0 0 0 0 2 0 0 2 0
2 12 10 8 8 4 28 55 26 0 0 0 0 0 0 0 0 0 0 0 0 0 0 0 0 0 0 0 0 0 0 0 0 0 0 0 0 0 0 0 0 2 2 0 0 0 2
4 8 7 1 6 10 32 19 57 7 0 0 0 0 0 0 0 0 0 0 0 0 0 0 0 0 0 0 0 0 0 0 0 0 0 0 0 0 0 0 0 1 3 0 1 0 0
10 11 7 7 11 10 3 10 0 42 0 0 0 0 0 0 0 0 0 0 0 0 0 0 0 0 0 0 0 0 0 0 0 0 0 0 0 0 0 0 0 0 0 1 19 1 1
9 19 17 16 11 12 13 19 9 13 10 4 0 0 0 0 0 0 0 0 0 0 0 0 0 0 0 0 0 0 0 0 0 0 0 0 0 0 0 0 0 0 0 0 18 0 2
48 38 28 23 27 18 3 0 9 24 6 0 0 0 0 0 0 0 0 0 0 0 0 0 0 0 0 0 0 0 0 0 0 0 0 0 0 0 0 0 0 0 0 0 8 0 1
3 3 16 43 48 45 34 17 10 7 8 0 0 2 0 0 0 0 0 0 0 0 0 0 0 0 0 0 0 0 0 0 0 0 0 0 0 0 0 0 0 0 0 0 12 8 1
5 2 0 0 18 50 55 38 14 20 27 13 31 6 2 0 0 0 0 0 0 0 0 0 0 0 0 0 0 0 0 0 0 0 0 0 0 0 0 0 0 0 0 0 2 16 0
13 14 13 8 0 0 58 61 7 0 4 34 38 2 3 0 0 0 0 0 0 0 0 0 0 0 0 0 0 0 0 0 0 0 0 0 0 0 0 0 0 0 0 0 0 0 10
6 10 11 12 22 12 10 57 58 16 0 3 39 32 0 0 0 0 0 0 0 0 0 0 0 0 0 0 0 0 0 0 0 0 0 0 0 0 0 0 0 0 0 0 0 0 0
22 14 17 17 12 15 29 40 64 51 2 0 39 22 10 8 0 0 0 0 8 2 0 0 0 0 0 0 0 0 0 0 0 0 0 0 0 0 0 0 0 0 0 0 0 0 0
28 10 5 6 18 21 35 47 61 68 29 0 0 7 24 42 16 10 9 2 0 0 0 0 0 0 0 0 0 0 0 0 0 0 0 0 0 0 0 0 0 0 0 0 0 0 0
24 5 4 14 22 42 60 53 36 45 64 0 0 9 35 19 23 35 5 12 10 9 0 0 0 0 0 0 0 0 0 0 0 0 0 0 0 0 0 0 0 0 0 0 0 0 0
29 15 8 9 44 63 43 45 34 39 51 5 0 0 8 5 2 0 3 29 24 3 3 0 0 0 0 0 0 0 0 0 0 0 0 0 0 0 0 0 0 0 0 0 0 0 0
14 14 13 39 55 57 48 21 12 11 18 32 17 4 47 2 0 0 0 14 33 9 1 0 0 0 0 0 0 0 0 0 0 0 0 0 0 0 0 0 0 0 0 0 0 0 0
42 45 61 66 59 53 21 13 1 1 5 29 18 13 36 27 16 4 0 0 0 1 13 0 0 0 0 0 0 0 0 0 0 0 0 0 0 0 0 0 0 0 0 0 0 0 0
29 20 15 13 5 5 7 6 7 10 20 48 44 0 22 36 18 5 0 0 0 0 6 5 0 0 0 0 0 0 0 0 0 0 0 0 0 0 0 0 0 0 0 0 0 0 0